H1 CPF 2 NER 2021 7 15 9 196 01 glonass106 H2 0705201 9106 32275 2021 7 15 0 0 0 2021 7 18 23 45 0 900 1 1 0 0 0 1 H9 10 0 59410 0.00000 0 3732135.186 -20846315.777 -14220245.404 10 0 59410 900.00000 0 3865355.088 -18936109.211 -16650764.473 10 0 59410 1800.00000 0 4207926.471 -16770446.317 -18757947.006 10 0 59410 2700.00000 0 4784183.281 -14411292.764 -20500936.771 10 0 59410 3600.00000 0 5606429.006 -11925933.091 -21845956.861 10 0 59410 4500.00000 0 6674226.659 -9384322.955 -22766958.333 10 0 59410 5400.00000 0 7974235.156 -6856345.784 -23246118.969 10 0 59410 6300.00000 0 9480599.569 -4409087.299 -23274183.254 10 0 59410 7200.00000 0 11155879.412 -2104240.437 -22850637.607 10 0 59410 8100.00000 0 12952476.882 4252.570 -21983717.956 10 0 59410 9000.00000 0 14814506.199 1872224.189 -20690249.657 10 0 59410 9900.00000 0 16680026.817 3466888.682 -18995322.776 10 0 59410 10800.00000 0 18483548.112 4767966.717 -16931808.685 10 0 59410 11700.00000 0 20158701.744 5768281.847 -14539726.784 10 0 59410 12600.00000 0 21640970.547 6473805.002 -11865473.023 10 0 59410 13500.00000 0 22870360.283 6903146.187 -8960924.528 10 0 59410 14400.00000 0 23793902.574 7086515.525 -5882437.093 10 0 59410 15300.00000 0 24367884.056 7064198.017 -2689754.618 10 0 59410 16200.00000 0 24559708.021 6884606.860 555148.584 10 0 59410 17100.00000 0 24349309.915 6601997.946 3789270.242 10 0 59410 18000.00000 0 23730066.671 6273942.491 6949803.768 10 0 59410 18900.00000 0 22709161.026 5958665.116 9975359.078 10 0 59410 19800.00000 0 21307384.745 5712360.388 12807156.629 10 0 59410 20700.00000 0 19558388.367 5586601.815 15390171.022 10 0 59410 21600.00000 0 17507408.229 5625953.406 17674201.780 10 0 59410 22500.00000 0 15209523.466 5865885.359 19614850.345 10 0 59410 23400.00000 0 12727515.383 6331082.566 21174384.191 10 0 59410 24300.00000 0 10129418.146 7034218.086 22322471.409 10 0 59410 25200.00000 0 7485862.479 7975244.132 23036771.566 10 0 59410 26100.00000 0 4867322.726 9141231.389 23303371.518 10 0 59410 27000.00000 0 2341381.454 10506764.382 23117057.786 10 0 59410 27900.00000 0 -29875.064 12034877.410 22481420.220 10 0 59410 28800.00000 0 -2192222.502 13678492.654 21408784.797 10 0 59410 29700.00000 0 -4101327.428 15382301.101 19919976.634 10 0 59410 30600.00000 0 -5724355.674 17085008.124 18043917.437 10 0 59410 31500.00000 0 -7041093.757 18721850.016 15817064.868 10 0 59410 32400.00000 0 -8044537.412 20227276.221 13282704.347 10 0 59410 33300.00000 0 -8740923.620 21537684.699 10490106.739 10 0 59410 34200.00000 0 -9149205.878 22594095.327 7493568.307 10 0 59410 35100.00000 0 -9299995.972 23344648.630 4351351.608 10 0 59410 36000.00000 0 -9234018.142 23746824.311 1124548.292 10 0 59410 36900.00000 0 -9000142.069 23769285.739 -2124113.554 10 0 59410 37800.00000 0 -8653079.055 23393272.362 -5331493.665 10 0 59410 38700.00000 0 -8250839.965 22613481.125 -8435271.022 10 0 59410 39600.00000 0 -7852063.459 21438399.640 -11375157.767 10 0 59410 40500.00000 0 -7513328.366 19890077.045 -14094071.559 10 0 59410 41400.00000 0 -7286564.462 18003342.192 -16539243.392 10 0 59410 42300.00000 0 -7216671.458 15824502.045 -18663239.257 10 0 59410 43200.00000 0 -7339446.909 13409574.807 -20424876.201 10 0 59410 44100.00000 0 -7679910.487 10822131.521 -21790015.520 10 0 59410 45000.00000 0 -8251095.140 8130836.028 -22732218.427 10 0 59410 45900.00000 0 -9053356.007 5406785.303 -23233252.281 10 0 59410 46800.00000 0 -10074226.181 2720760.128 -23283438.395 10 0 59410 47700.00000 0 -11288825.604 140499.563 -22881835.317 10 0 59410 48600.00000 0 -12660806.340 -2271888.657 -22036254.521 10 0 59410 49500.00000 0 -14143795.246 -4462275.506 -20763108.398 10 0 59410 50400.00000 0 -15683274.302 -6386519.444 -19087093.423 10 0 59410 51300.00000 0 -17218820.657 -8012054.440 -17040714.311 10 0 59410 52200.00000 0 -18686613.392 -9318992.343 -14663657.828 10 0 59410 53100.00000 0 -20022102.608 -10300694.725 -12002027.816 10 0 59410 54000.00000 0 -21162729.464 -10963791.390 -9107455.559 10 0 59410 54900.00000 0 -22050583.359 -11327645.689 -6036102.160 10 0 59410 55800.00000 0 -22634884.664 -11423289.813 -2847571.874 10 0 59410 56700.00000 0 -22874188.524 -11291875.544 396242.763 10 0 59410 57600.00000 0 -22738216.566 -10982706.266 3632361.708 10 0 59410 58500.00000 0 -22209238.864 -10550933.758 6797940.549 10 0 59410 59400.00000 0 -21282947.228 -10055017.462 9831492.010 10 0 59410 60300.00000 0 -19968782.197 -9554054.052 12674081.855 10 0 59410 61200.00000 0 -18289699.085 -9105090.546 15270475.481 10 0 59410 62100.00000 0 -16281381.961 -8760534.976 17570212.772 10 0 59410 63000.00000 0 -13990937.564 -8565774.449 19528590.133 10 0 59410 63900.00000 0 -11475123.051 -8557101.615 21107530.558 10 0 59410 64800.00000 0 -8798180.815 -8760037.557 22276324.894 10 0 59410 65700.00000 0 -6029370.008 -9188122.354 23012230.062 10 0 59410 66600.00000 0 -3240297.051 -9842224.878 23300912.683 10 0 59410 67500.00000 0 -502155.650 -10710401.563 23136729.642 10 0 59410 68400.00000 0 2117009.468 -11768310.824 22522840.108 10 0 59410 69300.00000 0 4554901.761 -12980166.450 21471146.739 10 0 59410 70200.00000 0 6757327.503 -14300190.607 20002066.955 10 0 59410 71100.00000 0 8680208.464 -15674506.064 18144138.367 10 0 59410 72000.00000 0 10291169.349 -17043388.537 15933465.674 10 0 59410 72900.00000 0 11570634.568 -18343784.787 13413019.388 10 0 59410 73800.00000 0 12512389.369 -19511990.618 10631799.727 10 0 59410 74700.00000 0 13123582.771 -20486375.890 7643881.873 10 0 59410 75600.00000 0 13424173.356 -21210041.485 4507361.238 10 0 59410 76500.00000 0 13445842.427 -21633295.790 1283219.505 10 0 59410 77400.00000 0 13230421.574 -21715845.749 -1965865.893 10 0 59410 78300.00000 0 12827902.292 -21428609.587 -5176745.130 10 0 59410 79200.00000 0 12294112.942 -20755074.298 -8287027.710 10 0 59410 80100.00000 0 11688162.297 -19692140.277 -11236297.882 10 0 59410 81000.00000 0 11069758.673 -18250417.278 -13967289.661 10 0 59410 81900.00000 0 10496518.618 -16453958.995 -16426998.374 10 0 59410 82800.00000 0 10021379.263 -14339447.261 -18567707.044 10 0 59410 83700.00000 0 9690223.714 -11954859.909 -20347908.016 10 0 59410 84600.00000 0 9539819.554 -9357677.690 -21733102.493 10 0 59410 85500.00000 0 9596157.070 -6612704.851 -22696463.142 10 0 59411 0.00000 0 9873256.777 -3789593.633 -23219347.779 10 0 59411 900.00000 0 10372496.449 -960174.849 -23291654.991 10 0 59411 1800.00000 0 11082484.666 1804295.173 -22912015.469 10 0 59411 2700.00000 0 11979487.969 4435857.980 -22087815.810 10 0 59411 3600.00000 0 13028392.044 6872435.334 -20835054.636 10 0 59411 4500.00000 0 14184158.227 9060163.828 -19178033.638 10 0 59411 5400.00000 0 15393714.234 10955386.450 -17148889.311 10 0 59411 6300.00000 0 16598200.574 12526219.318 -14786973.865 10 0 59411 7200.00000 0 17735478.881 13753629.408 -12138096.733 10 0 59411 8100.00000 0 18742797.363 14631979.330 -9253640.721 10 0 59411 9000.00000 0 19559501.634 15169017.285 -6189569.274 10 0 59411 9900.00000 0 20129677.047 15385313.325 -3005343.797 10 0 59411 10800.00000 0 20404611.163 15313166.324 237228.323 10 0 59411 11700.00000 0 20344972.279 14995028.171 3475192.690 10 0 59411 12600.00000 0 19922611.623 14481512.060 6645670.406 10 0 59411 13500.00000 0 19121912.508 13829069.328 9687080.183 10 0 59411 14400.00000 0 17940628.633 13097433.286 12540335.997 10 0 59411 15300.00000 0 16390175.209 12346938.326 15149996.642 10 0 59411 16200.00000 0 14495359.537 11635827.848 17465344.599 10 0 59411 17100.00000 0 12293561.167 11017664.962 19441373.136 10 0 59411 18000.00000 0 9833394.914 10538955.514 21039662.283 10 0 59411 18900.00000 0 7172911.583 10237083.953 22229126.819 10 0 59411 19800.00000 0 4377410.522 10138649.322 22986621.806 10 0 59411 20700.00000 0 1516954.411 10258271.742 23297394.032 10 0 59411 21600.00000 0 -1336311.082 10597919.981 23155370.718 10 0 59411 22500.00000 0 -4110921.960 11146788.762 22563279.880 10 0 59411 23400.00000 0 -6738830.469 11881731.387 21532599.903 10 0 59411 24300.00000 0 -9157996.501 12768229.878 20083339.075 10 0 59411 25200.00000 0 -11314728.571 13761862.233 18243649.021 10 0 59411 26100.00000 0 -13165677.388 14810205.344 16049279.172 10 0 59411 27000.00000 0 -14679399.543 15855093.629 13542882.512 10 0 59411 27900.00000 0 -15837426.737 16835138.288 10773185.747 10 0 59411 28800.00000 0 -16634796.526 17688400.776 7794039.995 10 0 59411 29700.00000 0 -17080023.336 18355107.403 4663370.477 10 0 59411 30600.00000 0 -17194512.029 18780290.004 1442045.899 10 0 59411 31500.00000 0 -17011439.788 18916240.587 -1807309.914 10 0 59411 32400.00000 0 -16574154.736 18724675.702 -5021540.408 10 0 59411 33300.00000 0 -15934160.024 18178518.514 -8138188.294 10 0 59411 34200.00000 0 -15148769.605 17263222.853 -11096712.436 10 0 59411 35100.00000 0 -14278535.738 15977582.952 -13839665.477 10 0 59411 36000.00000 0 -13384557.542 14333994.346 -16313809.081 10 0 59411 36900.00000 0 -12525784.720 12358154.641 -18471144.998 10 0 59411 37800.00000 0 -11756430.368 10088216.378 -20269842.254 10 0 59411 38700.00000 0 -11123601.763 7573426.973 -21675043.024 10 0 59411 39600.00000 0 -10665248.561 4872312.189 -22659532.187 10 0 59411 40500.00000 0 -10408514.192 2050478.224 -23204258.473 10 0 59411 41400.00000 0 -10368559.136 -821876.894 -23298697.902 10 0 59411 42300.00000 0 -10547904.957 -3672639.949 -22941053.137 10 0 59411 43200.00000 0 -10936326.171 -6430537.174 -22138285.445 10 0 59411 44100.00000 0 -11511294.224 -9027853.685 -20905978.847 10 0 59411 45000.00000 0 -12238954.904 -11403005.935 -19268039.084 10 0 59411 45900.00000 0 -13075598.274 -13502861.574 -17256232.924 10 0 59411 46800.00000 0 -13969559.744 -15284711.428 -14909576.208 10 0 59411 47700.00000 0 -14863472.742 -16717812.475 -12273581.909 10 0 59411 48600.00000 0 -15696778.664 -17784438.428 -9399382.090 10 0 59411 49500.00000 0 -16408388.769 -18480394.885 -6342740.158 10 0 59411 50400.00000 0 -16939386.032 -18814978.086 -3162972.174 10 0 59411 51300.00000 0 -17235653.021 -18810379.625 78202.171 10 0 59411 52200.00000 0 -17250314.670 -18500562.652 3317856.724 10 0 59411 53100.00000 0 -16945892.355 -17929657.211 6493080.747 10 0 59411 54000.00000 0 -16296077.667 -17149942.727 9542201.583 10 0 59411 54900.00000 0 -15287050.087 -16219503.024 12405984.054 10 0 59411 55800.00000 0 -13918281.980 -15199653.037 15028782.893 10 0 59411 56700.00000 0 -12202795.766 -14152246.057 17359625.592 10 0 59411 57600.00000 0 -10166861.162 -13136975.215 19353204.451 10 0 59411 58500.00000 0 -7849143.915 -12208783.168 20970758.439 10 0 59411 59400.00000 0 -5299340.387 -11415489.185 22180827.816 10 0 59411 60300.00000 0 -2576353.784 -10795733.622 22959866.973 10 0 59411 61200.00000 0 253912.875 -10377326.348 23292703.669 10 0 59411 62100.00000 0 3121056.151 -10176068.597 23172835.899 10 0 59411 63000.00000 0 5952860.801 -10195097.833 22602560.612 10 0 59411 63900.00000 0 8678066.409 -10424783.250 21592931.672 10 0 59411 64800.00000 0 11229097.681 -10843176.333 20163547.679 10 0 59411 65700.00000 0 13544645.348 -11416997.613 18342173.392 10 0 59411 66600.00000 0 15571990.625 -12103118.089 16164201.773 10 0 59411 67500.00000 0 17268976.855 -12850472.874 13671966.708 10 0 59411 68400.00000 0 18605546.537 -13602326.265 10913919.449 10 0 59411 69300.00000 0 19564779.989 -14298792.347 7943684.713 10 0 59411 70200.00000 0 20143392.865 -14879504.339 4819014.824 10 0 59411 71100.00000 0 20351672.506 -15286319.310 1600662.494 10 0 59411 72000.00000 0 20212856.687 -15465943.335 -1648805.294 10 0 59411 72900.00000 0 19761982.065 -15372365.404 -4866228.600 10 0 59411 73800.00000 0 19044251.902 -14968996.506 -7989086.684 10 0 59411 74700.00000 0 18112993.051 -14230422.864 -10956716.232 10 0 59411 75600.00000 0 17027289.323 -13143698.713 -13711491.533 10 0 59411 76500.00000 0 15849391.928 -11709123.571 -16199943.352 10 0 59411 77400.00000 0 14642016.684 -9940470.815 -18373794.643 10 0 59411 78300.00000 0 13465642.155 -7864657.477 -20190893.280 10 0 59411 79200.00000 0 12375922.367 -5520868.562 -21616024.223 10 0 59411 80100.00000 0 11421322.573 -2959171.994 -22621586.010 10 0 59411 81000.00000 0 10641076.793 -238681.303 -23188119.343 10 0 59411 81900.00000 0 10063552.063 2574658.245 -23304678.316 10 0 59411 82800.00000 0 9705087.215 5410568.824 -22969037.798 10 0 59411 83700.00000 0 9569354.059 8197121.761 -22187733.525 10 0 59411 84600.00000 0 9647267.045 10863491.592 -20975934.323 10 0 59411 85500.00000 0 9917444.694 13342669.151 -19357148.988 10 0 59412 0.00000 0 10347203.117 15574022.209 -17362773.221 10 0 59412 900.00000 0 10894039.875 17505598.171 -15031484.615 10 0 59412 1800.00000 0 11507545.655 19096074.384 -12408497.555 10 0 59412 2700.00000 0 12131663.797 20316274.488 -9544690.801 10 0 59412 3600.00000 0 12707202.411 21150189.701 -6495624.815 10 0 59412 4500.00000 0 13174493.421 21595461.607 -3320467.112 10 0 59412 5400.00000 0 13476086.258 21663307.306 -80846.273 10 0 59412 6300.00000 0 13559362.272 21377890.245 3160343.310 10 0 59412 7200.00000 0 13378959.012 20775163.488 6340162.556 10 0 59412 8100.00000 0 12898901.315 19901234.368 9396850.811 10 0 59412 9000.00000 0 12094348.343 18810319.586 12271026.889 10 0 59412 9900.00000 0 10952881.808 17562377.080 14906844.319 10 0 59412 10800.00000 0 9475279.865 16220514.606 17253078.111 10 0 59412 11700.00000 0 7675742.717 14848284.246 19264121.748 10 0 59412 12600.00000 0 5581559.118 13506976.832 20900874.911 10 0 59412 13500.00000 0 3232226.271 12253030.100 22131504.727 10 0 59412 14400.00000 0 678058.574 11135659.466 22932065.893 10 0 59412 15300.00000 0 -2021657.933 10194810.881 23286967.698 10 0 59412 16200.00000 0 -4800889.641 9459521.559 23189279.015 10 0 59412 17100.00000 0 -7589366.377 8946757.183 22640865.345 10 0 59412 18000.00000 0 -10315275.610 8660774.198 21652355.154 10 0 59412 18900.00000 0 -12908028.471 8593033.715 20242935.953 10 0 59412 19800.00000 0 -15300983.079 8722670.351 18439983.747 10 0 59412 20700.00000 0 -17434012.073 9017496.039 16278532.677 10 0 59412 21600.00000 0 -19255807.755 9435496.155 13800594.807 10 0 59412 22500.00000 0 -20725828.945 9926754.565 11054342.929 10 0 59412 23400.00000 0 -21815808.436 10435725.862 8093172.186 10 0 59412 24300.00000 0 -22510758.428 10903758.286 4974658.763 10 0 59412 25200.00000 0 -22809432.289 11271760.011 1759436.160 10 0 59412 26100.00000 0 -22724223.908 11482895.320 -1489988.603 10 0 59412 27000.00000 0 -22280509.730 11485195.812 -4710455.190 10 0 59412 27900.00000 0 -21515462.092 11233975.397 -7839382.218 10 0 59412 28800.00000 0 -20476384.807 10693946.201 -10815986.819 10 0 59412 29700.00000 0 -19218642.104 9840945.321 -13582467.308 10 0 59412 30600.00000 0 -17803268.968 8663198.872 -16085125.660 10 0 59412 31500.00000 0 -16294364.165 7162069.565 -18275407.804 10 0 59412 32400.00000 0 -14756375.969 5352255.800 -20110841.868 10 0 59412 33300.00000 0 -13251394.699 3261433.324 -21555856.611 10 0 59412 34200.00000 0 -11836565.493 929353.910 -22582464.857 10 0 59412 35100.00000 0 -10561729.218 -1593562.018 -23170799.514 10 0 59412 36000.00000 0 -9467389.552 -4248080.939 -23309492.626 10 0 59412 36900.00000 0 -8583090.394 -6968383.596 -22995890.807 10 0 59412 37800.00000 0 -7926270.480 -9684572.529 -22236103.473 10 0 59412 38700.00000 0 -7501642.096 -12325356.760 -21044883.181 10 0 59412 39600.00000 0 -7301119.064 -14820803.065 -19445340.417 10 0 59412 40500.00000 0 -7304296.223 -17105040.670 -17468498.114 10 0 59412 41400.00000 0 -7479459.804 -19118807.910 -15152693.993 10 0 59412 42300.00000 0 -7785085.912 -20811735.624 -12542841.768 10 0 59412 43200.00000 0 -8171763.931 -22144272.924 -9689564.811 10 0 59412 44100.00000 0 -8584463.794 -23089175.480 -6648218.456 10 0 59412 45000.00000 0 -8965051.481 -23632494.447 -3477819.464 10 0 59412 45900.00000 0 -9254946.476 -23774024.957 -239903.060 10 0 59412 46800.00000 0 -9397808.737 -23527195.524 3002670.389 10 0 59412 47700.00000 0 -9342141.225 -22918403.101 6186935.760 10 0 59412 48600.00000 0 -9043697.452 -21985821.845 9251046.727 10 0 59412 49500.00000 0 -8467591.510 -20777735.754 12135478.436 10 0 59412 50400.00000 0 -7590020.511 -19350465.367 14784185.526 10 0 59412 51300.00000 0 -6399525.641 -17765975.806 17145692.761 10 0 59412 52200.00000 0 -4897737.346 -16089266.758 19174096.915 10 0 59412 53100.00000 0 -3099571.970 -14385654.098 20829960.260 10 0 59412 54000.00000 0 -1032870.093 -12718057.252 22081078.423 10 0 59412 54900.00000 0 1262509.787 -11144405.978 22903107.739 10 0 59412 55800.00000 0 3736105.643 -9715275.162 23280040.037 10 0 59412 56700.00000 0 6328716.696 -8471846.454 23204515.757 10 0 59412 57600.00000 0 8974641.968 -7444281.806 22677969.330 10 0 59412 58500.00000 0 11604200.268 -6650576.677 21710603.892 10 0 59412 59400.00000 0 14146427.476 -6095940.470 20321195.645 10 0 59412 60300.00000 0 16531839.394 -5772729.687 18536731.310 10 0 59412 61200.00000 0 18695145.377 -5660936.031 16391885.368 10 0 59412 62100.00000 0 20577799.889 -5729208.323 13928346.878 10 0 59412 63000.00000 0 22130285.632 -5936364.543 11194008.600 10 0 59412 63900.00000 0 23314032.855 -6233329.546 8242034.126 10 0 59412 64800.00000 0 24102894.716 -6565415.877 5129821.123 10 0 59412 65700.00000 0 24484117.054 -6874850.492 1917881.117 10 0 59412 66600.00000 0 24458762.227 -7103439.639 -1331341.899 10 0 59412 67500.00000 0 24041569.744 -7195258.272 -4554690.468 10 0 59412 68400.00000 0 23260260.223 -7099249.285 -7689525.910 10 0 59412 69300.00000 0 22154312.729 -6771621.794 -10674949.103 10 0 59412 70200.00000 0 20773267.794 -6177946.297 -13452985.533 10 0 59412 71100.00000 0 19174628.226 -5294857.519 -15969711.284 10 0 59412 72000.00000 0 17421446.683 -4111292.551 -18176297.903 10 0 59412 72900.00000 0 15579701.725 -2629211.575 -20029956.108 10 0 59412 73800.00000 0 13715572.601 -863770.295 -21494760.501 10 0 59412 74700.00000 0 11892726.844 1157063.688 -22542339.920 10 0 59412 75600.00000 0 10169733.734 3393435.210 -23152420.888 10 0 59412 76500.00000 0 8597710.996 5795028.773 -23313214.461 10 0 59412 77400.00000 0 7218302.133 8302939.971 -23021639.701 10 0 59412 78300.00000 0 6062067.703 10851914.200 -22283380.023 10 0 59412 79200.00000 0 5147356.533 13372860.572 -21112771.616 10 0 59412 80100.00000 0 4479702.885 15795537.493 -19532526.152 10 0 59412 81000.00000 0 4051773.729 18051299.265 -17573292.894 10 0 59412 81900.00000 0 3843867.387 20075790.412 -15273068.208 10 0 59412 82800.00000 0 3824941.987 21811476.230 -12676463.344 10 0 59412 83700.00000 0 3954129.978 23209904.744 -9833843.997 10 0 59412 84600.00000 0 4182674.618 24233606.083 -6800357.676 10 0 59412 85500.00000 0 4456206.620 24857550.049 -3634867.306 10 0 59413 0.00000 0 4717264.679 25070101.082 -398811.459 10 0 59413 900.00000 0 4907952.915 24873430.247 2844987.228 10 0 59413 1800.00000 0 4972623.366 24283367.707 6033541.180 10 0 59413 2700.00000 0 4860468.192 23328700.307 9104922.011 10 0 59413 3600.00000 0 4527912.888 22049945.195 11999464.675 10 0 59413 4500.00000 0 3940707.444 20497649.782 14660928.170 10 0 59413 5400.00000 0 3075626.632 18730289.877 17037589.970 10 0 59413 6300.00000 0 1921706.365 16811853.932 19083252.743 10 0 59413 7200.00000 0 480962.821 14809214.758 20758143.611 10 0 59413 8100.00000 0 -1231437.313 12789398.739 22029688.541 10 0 59413 9000.00000 0 -3187564.115 10816866.708 22873146.933 10 0 59413 9900.00000 0 -5347654.337 8950920.142 23272094.120 10 0 59413 10800.00000 0 -7661546.509 7243340.774 23218742.586 10 0 59413 11700.00000 0 -10070562.517 5736361.947 22714095.640 10 0 59413 12600.00000 0 -12509758.167 4461056.033 21767930.486 10 0 59413 13500.00000 0 -14910449.807 3436204.792 20398610.844 10 0 59413 14400.00000 0 -17202912.282 2667699.246 18632732.420 10 0 59413 15300.00000 0 -19319136.073 2148493.516 16504607.774 10 0 59413 16200.00000 0 -21195528.819 1859113.710 14055600.231 10 0 59413 17100.00000 0 -22775448.415 1768699.584 11333319.429 10 0 59413 18000.00000 0 -24011461.667 1836534.218 8390694.041 10 0 59413 18900.00000 0 -24867233.865 2013996.236 5284939.710 10 0 59413 19800.00000 0 -25318970.019 2246851.099 2076442.432 10 0 59413 20700.00000 0 -25356347.278 2477783.657 -1172420.337 10 0 59413 21600.00000 0 -24982899.565 2649063.762 -4398497.394 10 0 59413 22500.00000 0 -24215838.610 2705231.179 -7539095.979 10 0 59413 23400.00000 0 -23085319.387 2595685.271 -10533203.709 10 0 59413 24300.00000 0 -21633181.453 2277069.075 -13322675.975 10 0 59413 25200.00000 0 -19911219.691 1715346.329 -15853365.399 10 0 59413 26100.00000 0 -17979057.689 887483.136 -18076171.191 10 0 59413 27000.00000 0 -15901713.388 -217337.104 -19947988.268 10 0 59413 27900.00000 0 -13746959.184 -1597017.149 -21432538.193 10 0 59413 28800.00000 0 -11582586.930 -3236397.456 -22501066.419 10 0 59413 29700.00000 0 -9473691.733 -5107662.624 -23132893.174 10 0 59413 30600.00000 0 -7480087.219 -7171286.415 -23315808.136 10 0 59413 31500.00000 0 -5653959.199 -9377476.590 -23046301.987 10 0 59413 32400.00000 0 -4037854.360 -11668060.237 -22329630.943 10 0 59413 33300.00000 0 -2663086.524 -13978731.993 -21179713.326 10 0 59413 34200.00000 0 -1548625.719 -16241572.487 -19618860.241 10 0 59413 35100.00000 0 -700515.069 -18387733.129 -17677345.339 10 0 59413 36000.00000 0 -111838.765 -20350176.331 -15392821.541 10 0 59413 36900.00000 0 236758.547 -22066357.630 -12809595.453 10 0 59413 37800.00000 0 376023.564 -23480738.393 -9977772.853 10 0 59413 38700.00000 0 346561.997 -24547024.539 -6952291.170 10 0 59413 39600.00000 0 196887.056 -25230037.715 -3791857.245 10 0 59413 40500.00000 0 -18868.544 -25507140.588 -557810.633 10 0 59413 41400.00000 0 -243480.152 -25369156.276 2687065.686 10 0 59413 42300.00000 0 -419291.142 -24820743.032 5879763.978 10 0 59413 43200.00000 0 -490892.357 -23880208.098 8958275.950 10 0 59413 44100.00000 0 -407707.159 -22578768.132 11862798.470 10 0 59413 45000.00000 0 -126372.119 -20959286.931 14536896.941 10 0 59413 45900.00000 0 387188.113 -19074543.064 16928603.498 10 0 59413 46800.00000 0 1156080.302 -16985099.791 18991428.505 10 0 59413 47700.00000 0 2191228.477 -14756866.275 20685265.523 10 0 59413 48600.00000 0 3490678.445 -12458451.935 21977172.216 10 0 59413 49500.00000 0 5039451.573 -10158424.295 22842012.114 10 0 59413 50400.00000 0 6809955.237 -7922584.645 23262944.848 10 0 59413 51300.00000 0 8762934.110 -5811374.920 23231755.440 10 0 59413 52200.00000 0 10848923.750 -3877523.518 22749016.299 10 0 59413 53100.00000 0 13010146.764 -2164027.889 21824078.668 10 0 59413 54000.00000 0 15182773.316 -702557.438 20474893.515 10 0 59413 54900.00000 0 17299452.274 487657.283 18727665.032 10 0 59413 55800.00000 0 19292007.683 1400403.378 16616343.124 10 0 59413 56700.00000 0 21094188.152 2042509.138 14181964.378 10 0 59413 57600.00000 0 22644354.165 2433312.314 11471854.017 10 0 59413 58500.00000 0 23887990.658 2603596.509 8538704.183 10 0 59413 59400.00000 0 24779939.328 2594041.632 5439546.523 10 0 59413 60300.00000 0 25286256.766 2453254.923 2234639.211 10 0 59413 61200.00000 0 25385620.125 2235466.834 -1013709.442 10 0 59413 62100.00000 0 25070221.175 1997990.340 -4242357.326 10 0 59413 63000.00000 0 24346111.152 1798552.243 -7388560.568 10 0 59413 63900.00000 0 23232982.092 1692610.366 -10391196.511 10 0 59413 64800.00000 0 21763394.157 1730771.019 -13191953.361 10 0 59413 65700.00000 0 19981481.763 1956416.649 -15736463.020 10 0 59413 66600.00000 0 17941193.277 2403644.450 -17975354.888 10 0 59413 67500.00000 0 15704138.345 3095603.384 -19865210.391 10 0 59413 68400.00000 0 13337133.154 4043300.011 -21369400.132 10 0 59413 69300.00000 0 10909546.196 5244923.715 -22458788.045 10 0 59413 70200.00000 0 8490555.034 6685720.013 -23112289.704 10 0 59413 71100.00000 0 6146427.749 8338417.758 -23317274.810 10 0 59413 72000.00000 0 3937941.541 10164192.889 -23069806.788 10 0 59413 72900.00000 0 1918044.753 12114129.205 -22374715.456 10 0 59413 73800.00000 0 129858.360 14131115.998 -21245501.699 10 0 59413 74700.00000 0 -1394901.185 16152104.230 -19704076.068 10 0 59413 75600.00000 0 -2637013.439 18110628.080 -17780336.176 10 0 59413 76500.00000 0 -3590315.583 19939487.522 -15511590.611 10 0 59413 77400.00000 0 -4261711.814 21573480.619 -12941839.977 10 0 59413 78300.00000 0 -4670631.214 22952072.003 -10120928.319 10 0 59413 79200.00000 0 -4847957.652 24021886.261 -7103580.726 10 0 59413 80100.00000 0 -4834477.375 24738921.914 -3948345.295 10 0 59413 81000.00000 0 -4678910.230 25070393.126 -716459.627 10 0 59413 81900.00000 0 -4435607.982 24996121.542 2529336.374 10 0 59413 82800.00000 0 -4162017.342 24509419.362 5726018.218 10 0 59413 83700.00000 0 -3916015.359 23617425.995 8811501.267 10 0 59413 84600.00000 0 -3753230.315 22340883.516 11725847.867 10 0 59413 85500.00000 0 -3724461.947 20713359.745 14412433.292 99